ESST

Details ICAO ESST (TYF)
Name TORSBY
Region Sweden
Timezone Europe/Stockholm (UTC+1.0)
Plans Departing 5
Arriving 3
Stats Elevation 393 ft / 120 m (AMSL)
Location 60.157373° 12.991474°
Runways 1
Magnetic Variation 4.039° E
Sunrise 2017-02-24 06:22:47 UTC / 2017-02-24 07:22:47 Local
Sunset 2017-02-24 16:22:39 UTC / 2017-02-24 17:22:39 Local
Advertisement - Login to hide

Runways

ID Width Length Bearing (true) Bearing (mag) Surface Threshold Offset Overrun Length
16 95 ft / 29 m 5,208 ft / 1,587 m 157.74° 153.70° Asphalt 367 ft / 112 m 0 ft / 0 m
34 95 ft / 29 m 5,208 ft / 1,587 m 337.75° 333.71° Asphalt 0 ft / 0 m 0 ft / 0 m

Approach Navaids

Runway Type Ident Frequency Range Bearing (true) Bearing (mag) Slope Elevation
16 Localiser NST 108.70 MHz 18 nm / 33 km 157.77° 153.73° - 393 ft / 120 m (AMSL)
16 DME NST 108.70 MHz 18 nm / 33 km - - - 397 ft / 121 m (AMSL)
34 Localiser ST 110.90 MHz 18 nm / 33 km 337.74° 333.70° - 393 ft / 120 m (AMSL)

Map

Weather

Temperature
Clouds and Precipitation
Forecast for 2017-02-24 06:00 UTC. Updated 23 minutes ago
Winds

METAR

ESST 240520Z VRB02KT CAVOK M14/M15 Q0993

TAF

Not found

Frequencies

Tower 122.05 MHz AFIS
Warning: Do not use this data for real-world aviation or navigation. No guarantee of current accuracy is given.